Flag for U.S.A. Weather past 2 weeks in Hayward, California, U.S.A.

Now
66 °F

Sunny.


Feels Like: 66 °F
Forecast: 46 / 63 °F
Wind: 5 mph from South

Location: Hayward Air Terminal

Current Time: Jan 31, 2015 at 10:38:48 AM

Latest Report: Jan 31, 2015 at 9:54 AM


Visibility: 10 mi

Pressure: 30.01 "Hg

Humidity: 28%

Dew point: 32 °F

Location of HaywardLocation

Historic Weather in Hayward — Graph

°F

Hayward temperature yesterday

Maximum temperature yesterday: 63 °F (at 2:54 PM)
Minimum temperature yesterday: 45 °F (at 2:54 AM)
Average temperature yesterday: 54 °F

Past Weeks' High & Low Weather Summary

 TemperatureHumidityPressure
High74 °F (Jan 24, 1:54 PM)100% (Jan 30, 2:54 AM)30.40 "Hg (Jan 30, 2:54 AM)
Low42 °F (Jan 31, 3:54 AM)26% (Jan 31, 6:54 AM)29.93 "Hg (Jan 30, 3:54 PM)
Average55 °F73%30.19 "Hg
* Reported Jan 16 8:54 AM — Jan 31 8:54 AM, Hayward, Weather by CustomWeather, © 2014

Note: Actual official high and low records may vary slightly from our data, if they occured in-between our weather recording intervals... More about our weather records

Advertising

Hayward weather history for previous 24 hours

 ConditionsComfort  
Time TempWeatherWind HumidityBarometerVisibility
8:54 AM
Jan 31
60 °FSunny.6 mph38%30.00 "Hg10 mi
7:54 AM59 °FSunny.No wind29%29.98 "Hg10 mi
6:54 AM61 °FClear.12 mph26%29.96 "Hg10 mi
5:54 AM51 °FClear.No wind52%29.94 "Hg10 mi
4:54 AM49 °FClear.3 mph71%29.94 "Hg10 mi
3:54 AM42 °FClear.No wind96%29.94 "Hg10 mi
2:54 AM47 °FClear.No wind90%29.94 "Hg10 mi
1:54 AM47 °FClear.6 mph90%29.94 "Hg10 mi
12:54 AM49 °FClear.No wind90%29.95 "Hg10 mi
11:54 PM
Jan 30
49 °FClear.3 mph90%29.95 "Hg10 mi
10:54 PM51 °FClear.5 mph89%29.96 "Hg10 mi
9:54 PM53 °FClear.3 mph86%29.96 "Hg10 mi
8:54 PM54 °FClear.No wind86%29.95 "Hg10 mi
7:54 PM54 °FClear.No wind90%29.95 "Hg10 mi
6:54 PM54 °FClear.No wind90%29.96 "Hg10 mi
5:54 PM55 °FClear.7 mph90%29.95 "Hg10 mi
4:54 PM60 °FSunny.10 mph72%29.93 "Hg10 mi
3:54 PM63 °FSunny.9 mph68%29.93 "Hg10 mi
2:54 PM63 °FSunny.6 mph70%29.94 "Hg10 mi
1:54 PM62 °FSunny.6 mph65%29.96 "Hg10 mi
12:54 PM62 °FSunny.No wind67%29.98 "Hg10 mi
11:54 AM59 °FSunny.No wind75%30.01 "Hg7 mi
10:54 AM58 °FPassing clouds.No wind75%30.05 "Hg7 mi
Weather by CustomWeather, © 2014

See weather overviewHow to use our weather pages